STARLINK-36118 (67009 NORAD) Tracking and Keplerian Element Data

This shows tracking and keplerian element data for the satellite.

Feedback or suggestion? Click here.




ElementValue
Catalog67009
NameSTARLINK-36118
Epoch Orbit132
Epoch Day354.25003472
Epoch Year2025
RAAN301.973
Inclination69.9942
Eccentricity0.0003902
Argument of Perigee271.7736
Mean Anonmoly308.1503
Mean Motion15.92235418
Decay Rate-0.0109542
L11 67009U 25293G 25354.25003472 -.01095420 35848-3 -32623-2 0 9997
L22 67009 69.9942 301.9730 0003902 271.7736 308.1503 15.92235418 1329



Live tracking and technical data element details for STARLINK-36118 (NORAD 67009). STARLINK-36118 can be tracked NOW for your location showing map with azimuth and elevation plus other details from your city location.







IsCatalogInMostPopularTable: catalog: 67009, numindb: 15
Update: records affected: 1



GetName: 67009 STARLINK-36118

Hit Count: updated at: Fri, 16 Jan 2026 08:50:22 GMT